www.pogodaiklimat.ru
ПОГОДА в Сингапуре
Время
(UTC), дата
03 10.11
06 10.11
09 10.11
12 10.11
15 10.11
18 10.11
21 10.11
00 11.11
03 11.11
06 11.11
09 11.11
12 11.11
15 11.11
18 11.11
21 11.11
00 12.11
03 12.11
06 12.11
09 12.11
12 12.11
15 12.11
18 12.11
21 12.11
00 13.11
03 13.11
06 13.11
09 13.11
12 13.11
15 13.11
18 13.11
21 13.11
00 14.11
03 14.11
06 14.11
09 14.11
12 14.11
15 14.11
18 14.11
21 14.11
00 15.11
03 15.11
06 15.11
09 15.11
12 15.11
15 15.11
18 15.11
21 15.11
00 16.11
03 16.11
06 16.11
09 16.11
12 16.11
15 16.11
18 16.11
21 16.11
00 17.11
Ветер
(напр.,м/с)
Видим. Явления Облачность Т
(С)
Тd
(С)
f
(%)
Тe
(С)
Тes
(С)
Комфортность P
(гПа)
Po
(гПа)
Тmin
(С)
Tmax
(С)
R
(мм)
R24
(мм)
S
(см)
З 3 16 км мгла 9/1 540 м
[Cu hum Ac trans Ci sp]
+30.9 +20.8 55 +38 +44 очень
душно
1012.3 1010.5
Ю 4 15 км мгла 9/1 660 м
[Cu hum Ac trans Ci sp]
+32.1 +22.3 56 +41 +48 опасность
перегрева
1009.2 1007.4
Ю 3 15 км мгла 9/1 660 м
[Cu hum Ci sp]
+31.3 +23.1 62 +42 +45 опасность
перегрева
1006.7 1004.9
ЮЗ 1 15 км мгла 9/1 600 м
[Cu hum Ci sp]
+29.5 +23.3 69 +40 +40 очень
душно
1008.9 1007.0 +33.6
СЗ 1 14 км мгла 9/1 540 м
[Cu hum Ci sp]
+28.7 +23.7 74 +39 +39 очень
душно
1011.0 1009.1
С 1 12 км мгла 9/1 540 м
[Cu hum Ac trans Ci sp]
+27.8 +24.5 82 +39 +39 очень
душно
1009.7 1007.9
С 1 8000 м мгла 9/1 480 м
[Cu hum Ac trans Cs]
+27.0 +24.6 87 +38 +38 очень
душно
1008.0 1006.1
Ю 2 5000 м мгла 9/1 540 м
[Cu med, cong Ac trans Ci sp]
+29.1 +24.9 78 +42 +42 опасность
перегрева
1010.3 1008.4 +25.9
ЮЗ 3 10 км мгла 9/3 600 м
[Cu hum Ac trans Ci sp]
+31.6 +24.9 68 +45 +50 опасность
перегрева
1011.1 1009.2
Ю 4 12 км мгла 9/3 600 м
[Cu hum Ac trans Cs]
+31.7 +23.0 60 +42 +47 опасность
перегрева
1008.5 1006.7
ЮЗ 2 13 км мгла 9/4 540 м
[Cu Sc Ac trans Cs]
+29.2 +24.3 75 +41 +43 опасность
перегрева
1007.7 1005.9
ЮЗ 1 12 км мгла 9/1 540 м
[Cu hum Ac trans Cs]
+29.1 +23.8 73 +40 +40 очень
душно
1009.3 1007.4 +32.9
СЗ 2 12 км мгла 9/1 540 м
[Cu hum Ac trans Cs]
+27.9 +25.2 85 +40 +40 очень
душно
1010.7 1008.8
СЗ 2 12 км мгла 9/1 540 м
[Cu hum Ac trans Cs]
+27.8 +24.8 84 +40 +40 очень
душно
1009.8 1008.0
С 1 7000 м мгла 9/1 540 м
[Cu hum Ac trans Ci sp]
+26.8 +24.9 89 +38 +38 очень
душно
1009.2 1007.4
СЗ 1 5000 м мгла 9/1 540 м
[Cu hum Ac trans Ci sp]
+27.6 +24.8 85 +39 +40 очень
душно
1010.8 1009.0 +26.6
СВ 2 7000 м мгла 9/4 540 м
[Cu hum Ac trans Cs]
+31.2 +25.0 70 +45 +50 опасность
перегрева
1011.6 1009.8
ЮЗ 3 6000 м мгла 9/4 540 м
[Cb cap Ac trans Cs]
+32.8 +23.2 57 +43 +49 опасность
перегрева
1009.5 1007.7
СВ 1 6000 м в посл. час гроза 9/3 540 м
[Cu Sc Ac trans Cs]
+28.0 +23.3 76 +38 +41 очень
душно
1008.7 1006.8
СЗ 2 5000 м мгла {гроза} 9/1 540 м
[Cu Sc Ac trans Cs]
+27.7 +23.8 79 +38 +38 очень
душно
1010.3 1008.5 +33.2
С 1 7000 м мгла 10/0
[Ac As Cs]
+27.6 +24.0 81 +38 +38 очень
душно
1012.1 1010.3
С 1 5000 м мгла 9/1 600 м
[Cu hum Ac trans Cs]
+26.9 +24.0 84 +37 +37 очень
душно
1010.8 1009.0
СЗ 1 5000 м мгла 9/1 600 м
[Cu hum Ac trans Ci sp]
+26.6 +23.8 85 +37 +37 очень
душно
1010.5 1008.6
СЗ 1 3000 м мгла 9/1 600 м
[Cu hum Ac trans Cs]
+26.9 +24.3 86 +38 +38 очень
душно
1011.9 1010.0 +26.2
С 2 6000 м мгла 9/1 540 м
[Cu med, cong Ac trans Cs]
+30.8 +24.4 69 +43 +51 опасность
перегрева
1012.1 1010.2
СВ 3 10 км мгла 9/3 600 м
[Cu med, cong Ac trans Cs]
+32.1 +23.5 60 +43 +49 опасность
перегрева
1009.6 1007.8
В 4 9000 м мгла 9/3 600 м
[Cu med, cong Ac trans Cs]
+29.9 +23.8 70 +41 +43 опасность
перегрева
1008.2 1006.4
СВ 3 10 км мгла 9/1 540 м
[Cu hum Ac trans Ci sp]
+28.7 +25.4 82 +42 +42 опасность
перегрева
1010.5 1008.6 +33.4
СЗ 1 10 км мгла 9/1 600 м
[Cu hum Ac trans Ci sp]
+28.1 +25.3 85 +41 +41 опасность
перегрева
1012.4 1010.6
СЗ 2 8000 м гроза без осадков 9/4 500 м
[Cb cap Ac trans Cs]
+27.2 +24.9 87 +39 +39 очень
душно
1011.0 1009.1
СВ 3 8000 м мгла {гроза} 9/1 540 м
[Cu Sc Ac lent Cs]
+26.4 +24.5 89 +37 +37 очень
душно
1009.9 1008.1
СВ 2 9000 м мгла {гроза} 9/3 540 м
[Cu Sc Ac lent Cs]
+26.8 +24.5 87 +38 +38 очень
душно
1011.8 1009.9 +25.9
В 4 10 км слаб. дождь 10/3 450 м
[Cu Sc Ac As Cs]
+26.3 +23.6 85 +36 +39 очень
душно
1013.4 1011.6 0.0
СВ 3 14 км мгла {дождь} 9/4 500 м
[Cu Sc Ac lent Cs]
+29.2 +24.6 76 +41 +47 опасность
перегрева
1010.3 1008.5 0.0
СВ 4 16 км мгла 9/4 600 м
[Cu hum Ac trans Ci sp]
+29.9 +23.8 70 +41 +42 опасность
перегрева
1008.0 1006.2
СВ 3 14 км мгла 9/1 540 м
[Cu hum Ac trans Ci sp]
+27.6 +24.0 81 +38 +38 очень
душно
1010.3 1008.4 +30.4
СВ 2 12 км зарница 9/1 480 м
[Cb cap Ac trans Ci sp]
+27.3 +24.5 85 +39 +39 очень
душно
1012.2 1010.4
С 1 12 км мгла 9/1 540 м
[Cu hum Ac trans Ci sp]
+26.9 +25.0 89 +39 +39 очень
душно
1010.6 1008.8
С 1 12 км мгла 9/4 540 м
[Cu Sc Ac trans Ci sp]
+26.6 +24.9 90 +38 +38 очень
душно
1009.3 1007.5
В 4 3000 м гроза, ливневой дождь 9/5 480 м
[Cb cap Ac trans Cs]
+24.7 +23.7 94 +34 +34 очень
душно
1011.1 1009.3 +24.7 1 1.2
С 3 12 км мгла {гроза} 9/1 360 м
[Cu Sc Ac As Cs]
+26.5 +24.3 88 +37 +43 очень
душно
1013.1 1011.2 0.0
СВ 3 18 км мгла {гроза} 10/1 540 м
[Cu Sc Ac trans Cs]
+28.8 +23.5 73 +39 +47 очень
душно
1010.3 1008.5 0.0
СВ 3 18 км мгла 9/1 540 м
[Cu hum Ac trans Cs]
+29.0 +24.2 75 +40 +42 очень
душно
1008.7 1006.8
С 1 16 км мгла 9/1 480 м
[Cu Sc Ac trans Cs]
+27.1 +24.5 86 +38 +38 очень
душно
1010.8 1008.9 +30.6
С 1 14 км мгла 9/1 540 м
[Cu hum Ac lent Ci sp]
+26.5 +24.0 86 +37 +37 очень
душно
1011.9 1010.0
СЗ 2 12 км мгла 9/1 540 м
[Cu hum Ac As Ci sp]
+26.4 +24.1 87 +37 +37 очень
душно
1010.8 1008.9
СЗ 1 12 км мгла 9/1 540 м
[Cu hum Ac lent Ci sp]
+26.2 +24.2 89 +36 +36 очень
душно
1009.8 1007.9
С 1 12 км мгла 9/1 540 м
[Cu hum Ac trans Ci sp]
+27.8 +23.8 79 +38 +39 очень
душно
1011.0 1009.2 +24.7 0.0
СВ 4 14 км мгла 9/1 600 м
[Cu hum Ac lent Ci sp]
+30.9 +24.2 68 +43 +48 опасность
перегрева
1012.0 1010.2
СВ 5 16 км мгла 9/4 500 м
[Cb cap Ac trans Ci sp]
+31.4 +24.3 66 +44 +47 опасность
перегрева
1009.6 1007.8
СВ 4 14 км мгла 9/4 480 м
[Cu Sc Ac trans Cs]
+29.8 +24.5 73 +42 +43 опасность
перегрева
1008.8 1007.0
В 4 12 км мгла 9/4 540 м
[Cu hum Ac trans Cs]
+27.7 +24.7 84 +39 +39 очень
душно
1011.1 1009.3 +33.1
С 1 12 км мгла 9/1 540 м
[Cu hum Ac trans Cs]
+26.8 +24.8 89 +38 +38 очень
душно
1012.7 1010.8
С 2 12 км мгла 9/1 540 м
[Cu hum Ac trans Ci sp]
+26.9 +23.8 83 +37 +37 очень
душно
1011.1 1009.3
СЗ 2 14 км мгла 6/1 600 м
[Cu hum Ac trans Ci fib]
+26.1 +24.0 88 +36 +36 очень
душно
1009.6 1007.8
С 1 13 км мгла 9/1 600 м
[Cu hum Ac trans Ci sp]
+27.6 +23.7 79 +38 +38 очень
душно
1010.9 1009.1 +25.5
Местоположение метеостанции Сингапур (Сингапур): широта 1.37 долгота 103.98 высота над уровнем моря 16 м.
В архиве по умолчанию представлена погода в Сингапуре за последнюю неделю. Архивные данные за месяц целиком и за предыдущие месяцы, начиная с января 2011 года, Вы можете получить, выбрав интересующий диапазон дат из раскрывающегося списка и нажав кнопку "Найти!".
*Определитесь, кто Вы:
Внимание! Время в таблицах - всемирное. Для получения местного времени необходимо прибавить поправку, которая равна 7 ч.
Смотрите также архив погоды в соседних городах и на ближайших метеорологических станциях:
Партнеры нашего сайта:      
Пояснения к столбцам:
  • Ветер - указаны скорость ветра в м/с - средняя за 10 мин, порывы в срок и между сроками (в фигурных скобках) и направление, откуда дует ветер: С - северный,
  • СВ - северо-восточный, В - восточный, ЮВ - юго-восточный, Ю - южный, ЮЗ - юго-западный, З - западный, СЗ - северо-западный.
  • Видимость - горизонтальная дальность видимости в метрах или километрах. При видимости от 1 до 10 км при отсутствии осадков обычно наблюдается дымка, при ухудшении видимости до 1 км и менее - туман. В сухую погоду видимость может ухудшаться дымом, пылью или мглою.
  • Явления - указаны атмосферные явления, наблюдавшиеся в срок или в последний час перед сроком; фигурными скобками обозначены явления, наблюдавшиеся между сроками (за 1-3 часа до срока); квадратными скобками обозначены град или гололедные отложения с указанием их диаметра в мм.
  • Облачность - указаны через наклонную черту общая и нижняя облачность в баллах и высота нижней границы облаков в метрах; квадратными скобками обозначены формы облаков: Ci - перистые, Cs - перисто-слоистые, Cc - перисто-кучевые, Ac - высококучевые, As - высокослоистые, Sc - слоисто-кучевые, Ns - слоисто-дождевые, Cu - кучевые, Cb - кучево-дождевые. Подробнее классификацию облаков см. в Атласе облаков (PDF).
  • T - Температура воздуха - температура, измеренная на высоте 2 м над землей.
  • Td - Температура точки росы - температура, при понижении до которой содержащийся в воздухе водяной пар достигнет насыщения.
  • f - Относительная влажность воздуха - влажноcть воздуха, измеренная на высоте 2 м над землей.
  • Te - Эффективная температура - температура, которую ощущает одетый по сезону человек в тени. Характеристика душности погоды. При расчете учитывается влияние влажности воздуха и скорости ветра на теплоощущения человека.
  • Tes - Эффективная температура на солнце - температура, которую ощущает человек, с поправкой на солнечный нагрев. Характеристика знойности погоды. Зависит от высоты солнца над горизонтом, облачности и скорости ветра. Ночью, в пасмурную погоду, а также при ветре 12 м/с и более поправка равна нулю.
  • P - Атмосферное давление - приведенное к уровню моря атмосферное давление.
  • Po - Атмосферное давление - измеренное на уровне метеостанции атмосферное давление.
  • Tmin - Минимальная температура - минимум температуры воздуха на высоте 2 м над землей.
  • Tmax - Максимальная температура - максимум температуры воздуха на высоте 2 м над землей.
  • R - Количество осадков - Количество выпавших осадков за период времени, мм. При наведении курсора мыши на число - период времени, за который выпало указанное количество осадков.
  • R24 - Количество осадков - Количество выпавших осадков за 24 часа, мм.
  • S - Снежный покров - Высота снежного покрова, см. При наведении курсора мыши на число - состояние снежного покрова и степень покрытия местности в баллах.